TimeCST,TemperatureF,Dew PointF,Humidity,Sea Level PressureIn,VisibilityMPH,Wind Direction,Wind SpeedMPH,Gust SpeedMPH,PrecipitationIn,Events,Conditions,WindDirDegrees,DateUTC
12:53 AM,46.9,39.9,77,30.21,10.0,SE,6.9,-,N/A,,Clear,130,2012-11-16 06:53:00
1:53 AM,44.1,39.0,82,30.22,10.0,SE,5.8,-,N/A,,Clear,130,2012-11-16 07:53:00
2:53 AM,43.0,39.0,86,30.22,10.0,NW,3.5,-,N/A,,Clear,320,2012-11-16 08:53:00
3:53 AM,44.1,37.0,76,30.22,10.0,Calm,Calm,-,N/A,,Clear,0,2012-11-16 09:53:00
4:53 AM,44.1,37.9,79,30.22,10.0,NNE,3.5,-,N/A,,Clear,20,2012-11-16 10:53:00
5:53 AM,42.1,37.0,82,30.25,10.0,North,3.5,-,N/A,,Clear,350,2012-11-16 11:53:00
6:53 AM,39.0,37.0,93,30.27,10.0,North,6.9,-,N/A,,Clear,360,2012-11-16 12:53:00
7:53 AM,42.1,36.0,79,30.29,10.0,NNE,5.8,-,N/A,,Clear,20,2012-11-16 13:53:00
8:53 AM,48.0,37.0,66,30.30,10.0,Calm,Calm,-,N/A,,Clear,0,2012-11-16 14:53:00
9:53 AM,52.0,42.1,69,30.31,10.0,East,3.5,-,N/A,,Clear,100,2012-11-16 15:53:00
10:53 AM,57.0,44.1,62,30.30,10.0,Calm,Calm,-,N/A,,Clear,0,2012-11-16 16:53:00
11:53 AM,61.0,45.0,56,30.27,10.0,SE,10.4,-,N/A,,Clear,130,2012-11-16 17:53:00
12:53 PM,63.0,44.1,50,30.23,10.0,SE,8.1,17.3,N/A,,Clear,140,2012-11-16 18:53:00
1:53 PM,64.9,44.1,47,30.21,10.0,SE,13.8,-,N/A,,Clear,140,2012-11-16 19:53:00
2:53 PM,64.9,44.1,47,30.19,10.0,SE,15.0,19.6,N/A,,Partly Cloudy,130,2012-11-16 20:53:00
3:53 PM,64.0,44.1,48,30.20,10.0,SSE,9.2,-,N/A,,Partly Cloudy,160,2012-11-16 21:53:00
4:53 PM,63.0,44.1,50,30.20,10.0,SE,10.4,-,N/A,,Clear,130,2012-11-16 22:53:00
5:53 PM,62.1,44.1,52,30.20,10.0,ESE,11.5,-,N/A,,Clear,120,2012-11-16 23:53:00
6:53 PM,60.1,44.1,55,30.21,10.0,SE,10.4,-,N/A,,Clear,130,2012-11-17 00:53:00
7:53 PM,59.0,45.0,60,30.23,10.0,SE,9.2,-,N/A,,Clear,140,2012-11-17 01:53:00
8:53 PM,57.0,45.0,64,30.22,10.0,SE,8.1,-,N/A,,Clear,140,2012-11-17 02:53:00
9:53 PM,54.0,44.1,69,30.24,10.0,SSE,4.6,-,N/A,,Scattered Clouds,150,2012-11-17 03:53:00
10:53 PM,53.1,45.0,74,30.24,10.0,SSE,4.6,-,N/A,,Mostly Cloudy,160,2012-11-17 04:53:00
11:53 PM,52.0,45.0,77,30.22,10.0,SSE,5.8,-,N/A,,Mostly Cloudy,160,2012-11-17 05:53:00